User: anonymous   Login
Location: *
(44.1392°N, 4.8079°E)
Time: 17:11:03
(UTC+00:00)
Language:

NOSS 5 (C) - Orbit

View from above orbital plane
View from above orbital plane
View from above satellite
View from above satellite

Ground track
Ground track

The orbit data is extracted from the following two-line orbital elements,

1 14143U 83056C   21263.74593448  .00000883  00000-0  82372-4 0  9998
2 14143  63.2958 267.7891 0901890 100.8370 269.5371 13.55970017110041
Epoch (UTC): 20 September 2021 17:54:08
Eccentricity: 0.0901890
inclination: 63.2958°
perigee height: 380 km
apogee height: 1720 km
right ascension of ascending node: 267.7891°
argument of perigee: 100.8370°
revolutions per day: 13.55970017
mean anomaly at epoch: 269.5371°
orbit number at epoch: 11004

The dashed part of the orbit path shows where the satellite is in the earth's shadow,  

DLR